Year,Month,Day,Hour,Minute,Value (Times are PST for insolation in W/m^2)
2012,03,01,00,00,0.00
2012,03,01,00,01,0.00
2012,03,01,00,02,0.00
2012,03,01,00,03,0.00
2012,03,01,00,04,0.00
2012,03,01,00,05,0.00
2012,03,01,00,06,0.00
2012,03,01,00,07,0.00
2012,03,01,00,08,0.00
2012,03,01,00,09,0.00
2012,03,01,00,10,0.00
2012,03,01,00,11,0.00
2012,03,01,00,12,0.00
2012,03,01,00,13,0.00
2012,03,01,00,14,0.00
2012,03,01,00,15,0.00
2012,03,01,00,16,0.00
2012,03,01,00,17,0.00
2012,03,01,00,18,0.00
2012,03,01,00,19,0.00
2012,03,01,00,20,0.00
2012,03,01,00,21,0.00
2012,03,01,00,22,0.00
2012,03,01,00,23,0.00
2012,03,01,00,24,0.00
2012,03,01,00,25,0.00
2012,03,01,00,26,0.00
2012,03,01,00,27,0.00
2012,03,01,00,28,0.00
2012,03,01,00,29,0.00
2012,03,01,00,30,0.00
2012,03,01,00,31,0.00
2012,03,01,00,32,0.00
2012,03,01,00,33,0.00
2012,03,01,00,34,0.00
2012,03,01,00,35,0.00
2012,03,01,00,36,0.00
2012,03,01,00,37,0.00
2012,03,01,00,38,0.00
2012,03,01,00,39,0.00
2012,03,01,00,40,0.00
2012,03,01,00,41,0.00
2012,03,01,00,42,0.00
2012,03,01,00,43,0.00
2012,03,01,00,44,0.00
2012,03,01,00,45,0.00
2012,03,01,00,46,0.00
2012,03,01,00,47,0.00
2012,03,01,00,48,0.00
2012,03,01,00,49,0.00
2012,03,01,00,50,0.00
2012,03,01,00,51,0.00
2012,03,01,00,52,0.00
2012,03,01,00,53,0.00
2012,03,01,00,54,0.00
2012,03,01,00,55,0.00
2012,03,01,00,56,0.00
2012,03,01,00,57,0.00
2012,03,01,00,58,0.00
2012,03,01,00,59,0.00
2012,03,01,01,00,0.00
2012,03,01,01,01,0.00
2012,03,01,01,02,0.00
2012,03,01,01,03,0.00
2012,03,01,01,04,0.00
2012,03,01,01,05,0.00
2012,03,01,01,06,0.00
2012,03,01,01,07,0.00
2012,03,01,01,08,0.00
2012,03,01,01,09,0.00
2012,03,01,01,10,0.00
2012,03,01,01,11,0.00
2012,03,01,01,12,0.00
2012,03,01,01,13,0.00
2012,03,01,01,14,0.00
2012,03,01,01,15,0.00
2012,03,01,01,16,0.00
2012,03,01,01,17,0.00
2012,03,01,01,18,0.00
2012,03,01,01,19,0.00
2012,03,01,01,20,0.00
2012,03,01,01,21,0.00
2012,03,01,01,22,0.00
2012,03,01,01,23,0.00
2012,03,01,01,24,0.00
2012,03,01,01,25,0.00
2012,03,01,01,26,0.00
2012,03,01,01,27,0.00
2012,03,01,01,28,0.00
2012,03,01,01,29,0.00
2012,03,01,01,30,0.00
2012,03,01,01,31,0.00
2012,03,01,01,32,0.00
2012,03,01,01,33,0.00
2012,03,01,01,34,0.00
2012,03,01,01,35,0.00
2012,03,01,01,36,0.00
2012,03,01,01,37,0.00
2012,03,01,01,38,0.00
2012,03,01,01,39,0.00
2012,03,01,01,40,0.00
2012,03,01,01,41,0.00
2012,03,01,01,42,0.00
2012,03,01,01,43,0.00
2012,03,01,01,44,0.00
2012,03,01,01,45,0.00
2012,03,01,01,46,0.00
2012,03,01,01,47,0.00
2012,03,01,01,48,0.00
2012,03,01,01,49,0.00
2012,03,01,01,50,0.00
2012,03,01,01,51,0.00
2012,03,01,01,52,0.00
2012,03,01,01,53,0.00
2012,03,01,01,54,0.00
2012,03,01,01,55,0.00
2012,03,01,01,56,0.00
2012,03,01,01,57,0.00
2012,03,01,01,58,0.00
2012,03,01,01,59,0.00
2012,03,01,02,00,0.00
2012,03,01,02,01,0.00
2012,03,01,02,02,0.00
2012,03,01,02,03,0.00
2012,03,01,02,04,0.00
2012,03,01,02,05,0.00
2012,03,01,02,06,0.00
2012,03,01,02,07,0.00
2012,03,01,02,08,0.00
2012,03,01,02,09,0.00
2012,03,01,02,10,0.00
2012,03,01,02,11,0.00
2012,03,01,02,12,0.00
2012,03,01,02,13,0.00
2012,03,01,02,14,0.00
2012,03,01,02,15,0.00
2012,03,01,02,16,0.00
2012,03,01,02,17,0.00
2012,03,01,02,18,0.00
2012,03,01,02,19,0.00
2012,03,01,02,20,0.00
2012,03,01,02,21,0.00
2012,03,01,02,22,0.00
2012,03,01,02,23,0.00
2012,03,01,02,24,0.00
2012,03,01,02,25,0.00
2012,03,01,02,26,0.00
2012,03,01,02,27,0.00
2012,03,01,02,28,0.00
2012,03,01,02,29,0.00
2012,03,01,02,30,0.00
2012,03,01,02,31,0.00
2012,03,01,02,32,0.00
2012,03,01,02,33,0.00
2012,03,01,02,34,0.00
2012,03,01,02,35,0.00
2012,03,01,02,36,0.00
2012,03,01,02,37,0.00
2012,03,01,02,38,0.00
2012,03,01,02,39,0.00
2012,03,01,02,40,0.00
2012,03,01,02,41,0.00
2012,03,01,02,42,0.00
2012,03,01,02,43,0.00
2012,03,01,02,44,0.00
2012,03,01,02,45,0.00
2012,03,01,02,46,0.00
2012,03,01,02,47,0.00
2012,03,01,02,48,0.00
2012,03,01,02,49,0.00
2012,03,01,02,50,0.00
2012,03,01,02,51,0.00
2012,03,01,02,52,0.00
2012,03,01,02,53,0.00
2012,03,01,02,54,0.00
2012,03,01,02,55,0.00
2012,03,01,02,56,0.00
2012,03,01,02,57,0.00
2012,03,01,02,58,0.00
2012,03,01,02,59,0.00
2012,03,01,03,00,0.00
2012,03,01,03,01,0.00
2012,03,01,03,02,0.00
2012,03,01,03,03,0.00
2012,03,01,03,04,0.00
2012,03,01,03,05,0.00
2012,03,01,03,06,0.00
2012,03,01,03,07,0.00
2012,03,01,03,08,0.00
2012,03,01,03,09,0.00
2012,03,01,03,10,0.00
2012,03,01,03,11,0.00
2012,03,01,03,12,0.00
2012,03,01,03,13,0.00
2012,03,01,03,14,0.00
2012,03,01,03,15,0.00
2012,03,01,03,16,0.00
2012,03,01,03,17,0.00
2012,03,01,03,18,0.00
2012,03,01,03,19,0.00
2012,03,01,03,20,0.00
2012,03,01,03,21,0.00
2012,03,01,03,22,0.00
2012,03,01,03,23,0.00
2012,03,01,03,24,0.00
2012,03,01,03,25,0.00
2012,03,01,03,26,0.00
2012,03,01,03,27,0.00
2012,03,01,03,28,0.00
2012,03,01,03,29,0.00
2012,03,01,03,30,0.00
2012,03,01,03,31,0.00
2012,03,01,03,32,0.00
2012,03,01,03,33,0.00
2012,03,01,03,34,0.00
2012,03,01,03,35,0.00
2012,03,01,03,36,0.00
2012,03,01,03,37,0.00
2012,03,01,03,38,0.00
2012,03,01,03,39,0.00
2012,03,01,03,40,0.00
2012,03,01,03,41,0.00
2012,03,01,03,42,0.00
2012,03,01,03,43,0.00
2012,03,01,03,44,0.00
2012,03,01,03,45,0.00
2012,03,01,03,46,0.00
2012,03,01,03,47,0.00
2012,03,01,03,48,0.00
2012,03,01,03,49,0.00
2012,03,01,03,50,0.00
2012,03,01,03,51,0.00
2012,03,01,03,52,0.00
2012,03,01,03,53,0.00
2012,03,01,03,54,0.00
2012,03,01,03,55,0.00
2012,03,01,03,56,0.00
2012,03,01,03,57,0.00
2012,03,01,03,58,0.00
2012,03,01,03,59,0.00
2012,03,01,04,00,0.00
2012,03,01,04,01,0.00
2012,03,01,04,02,0.00
2012,03,01,04,03,0.00
2012,03,01,04,04,0.00
2012,03,01,04,05,0.00
2012,03,01,04,06,0.00
2012,03,01,04,07,0.00
2012,03,01,04,08,0.00
2012,03,01,04,09,0.00
2012,03,01,04,10,0.00
2012,03,01,04,11,0.00
2012,03,01,04,12,0.00
2012,03,01,04,13,0.00
2012,03,01,04,14,0.00
2012,03,01,04,15,0.00
2012,03,01,04,16,0.00
2012,03,01,04,17,0.00
2012,03,01,04,18,0.00
2012,03,01,04,19,0.00
2012,03,01,04,20,0.00
2012,03,01,04,21,0.00
2012,03,01,04,22,0.00
2012,03,01,04,23,0.00
2012,03,01,04,24,0.00
2012,03,01,04,25,0.00
2012,03,01,04,26,0.00
2012,03,01,04,27,0.00
2012,03,01,04,28,0.00
2012,03,01,04,29,0.00
2012,03,01,04,30,0.00
2012,03,01,04,31,0.00
2012,03,01,04,32,0.00
2012,03,01,04,33,0.00
2012,03,01,04,34,0.00
2012,03,01,04,35,0.00
2012,03,01,04,36,0.00
2012,03,01,04,37,0.00
2012,03,01,04,38,0.00
2012,03,01,04,39,0.00
2012,03,01,04,40,0.00
2012,03,01,04,41,0.00
2012,03,01,04,42,0.00
2012,03,01,04,43,0.00
2012,03,01,04,44,0.00
2012,03,01,04,45,0.00
2012,03,01,04,46,0.00
2012,03,01,04,47,0.00
2012,03,01,04,48,0.00
2012,03,01,04,49,0.00
2012,03,01,04,50,0.00
2012,03,01,04,51,0.00
2012,03,01,04,52,0.00
2012,03,01,04,53,0.00
2012,03,01,04,54,0.00
2012,03,01,04,55,0.00
2012,03,01,04,56,0.00
2012,03,01,04,57,0.00
2012,03,01,04,58,0.00
2012,03,01,04,59,0.00
2012,03,01,05,00,0.00
2012,03,01,05,01,0.00
2012,03,01,05,02,0.00
2012,03,01,05,03,0.00
2012,03,01,05,04,0.00
2012,03,01,05,05,0.00
2012,03,01,05,06,0.00
2012,03,01,05,07,0.00
2012,03,01,05,08,0.00
2012,03,01,05,09,0.00
2012,03,01,05,10,0.00
2012,03,01,05,11,0.00
2012,03,01,05,12,0.00
2012,03,01,05,13,0.00
2012,03,01,05,14,0.00
2012,03,01,05,15,0.00
2012,03,01,05,16,0.00
2012,03,01,05,17,0.00
2012,03,01,05,18,0.00
2012,03,01,05,19,0.00
2012,03,01,05,20,0.00
2012,03,01,05,21,0.00
2012,03,01,05,22,0.00
2012,03,01,05,23,0.00
2012,03,01,05,24,0.00
2012,03,01,05,25,0.00
2012,03,01,05,26,0.00
2012,03,01,05,27,0.00
2012,03,01,05,28,0.00
2012,03,01,05,29,0.00
2012,03,01,05,30,0.00
2012,03,01,05,31,0.00
2012,03,01,05,32,0.00
2012,03,01,05,33,0.00
2012,03,01,05,34,0.00
2012,03,01,05,35,0.00
2012,03,01,05,36,0.00
2012,03,01,05,37,0.00
2012,03,01,05,38,0.00
2012,03,01,05,39,0.00
2012,03,01,05,40,0.00
2012,03,01,05,41,0.00
2012,03,01,05,42,0.00
2012,03,01,05,43,0.00
2012,03,01,05,44,0.00
2012,03,01,05,45,0.00
2012,03,01,05,46,0.00
2012,03,01,05,47,0.00
2012,03,01,05,48,0.00
2012,03,01,05,49,0.00
2012,03,01,05,50,0.00
2012,03,01,05,51,0.00
2012,03,01,05,52,0.00
2012,03,01,05,53,0.00
2012,03,01,05,54,0.00
2012,03,01,05,55,0.00
2012,03,01,05,56,0.00
2012,03,01,05,57,0.00
2012,03,01,05,58,0.00
2012,03,01,05,59,0.00
2012,03,01,06,00,0.00
2012,03,01,06,01,0.00
2012,03,01,06,02,0.00
2012,03,01,06,03,0.00
2012,03,01,06,04,0.00
2012,03,01,06,05,0.00
2012,03,01,06,06,0.00
2012,03,01,06,07,0.00
2012,03,01,06,08,0.00
2012,03,01,06,09,0.00
2012,03,01,06,10,0.00
2012,03,01,06,11,0.00
2012,03,01,06,12,0.00
2012,03,01,06,13,0.00
2012,03,01,06,14,0.00
2012,03,01,06,15,0.00
2012,03,01,06,16,0.00
2012,03,01,06,17,0.00
2012,03,01,06,18,0.00
2012,03,01,06,19,0.00
2012,03,01,06,20,0.00
2012,03,01,06,21,0.00
2012,03,01,06,22,0.00
2012,03,01,06,23,0.00
2012,03,01,06,24,0.00
2012,03,01,06,25,0.00
2012,03,01,06,26,0.00
2012,03,01,06,27,0.00
2012,03,01,06,28,0.00
2012,03,01,06,29,0.00
2012,03,01,06,30,0.00
2012,03,01,06,31,0.00
2012,03,01,06,32,0.00
2012,03,01,06,33,0.00
2012,03,01,06,34,0.00
2012,03,01,06,35,0.00
2012,03,01,06,36,0.00
2012,03,01,06,37,0.00
2012,03,01,06,38,0.00
2012,03,01,06,39,0.00
2012,03,01,06,40,0.00
2012,03,01,06,41,0.00
2012,03,01,06,42,0.00
2012,03,01,06,43,0.00
2012,03,01,06,44,0.00
2012,03,01,06,45,0.00
2012,03,01,06,46,0.00
2012,03,01,06,47,0.00
2012,03,01,06,48,0.00
2012,03,01,06,49,0.00
2012,03,01,06,50,0.00
2012,03,01,06,51,0.00
2012,03,01,06,52,0.00
2012,03,01,06,53,0.00
2012,03,01,06,54,0.00
2012,03,01,06,55,0.00
2012,03,01,06,56,3.70
2012,03,01,06,57,5.00
2012,03,01,06,58,5.00
2012,03,01,06,59,5.00
2012,03,01,07,00,5.00
2012,03,01,07,01,5.00
2012,03,01,07,02,6.50
2012,03,01,07,03,7.00
2012,03,01,07,04,7.00
2012,03,01,07,05,7.70
2012,03,01,07,06,9.00
2012,03,01,07,07,9.00
2012,03,01,07,08,10.60
2012,03,01,07,09,11.00
2012,03,01,07,10,11.00
2012,03,01,07,11,11.00
2012,03,01,07,12,11.50
2012,03,01,07,13,12.00
2012,03,01,07,14,12.00
2012,03,01,07,15,13.80
2012,03,01,07,16,14.00
2012,03,01,07,17,14.00
2012,03,01,07,18,14.00
2012,03,01,07,19,14.00
2012,03,01,07,20,14.00
2012,03,01,07,21,15.90
2012,03,01,07,22,16.00
2012,03,01,07,23,16.00
2012,03,01,07,24,16.00
2012,03,01,07,25,16.00
2012,03,01,07,26,17.60
2012,03,01,07,27,18.00
2012,03,01,07,28,18.00
2012,03,01,07,29,18.40
2012,03,01,07,30,19.00
2012,03,01,07,31,19.00
2012,03,01,07,32,20.80
2012,03,01,07,33,21.30
2012,03,01,07,34,23.90
2012,03,01,07,35,26.80
2012,03,01,07,36,29.20
2012,03,01,07,37,32.20
2012,03,01,07,38,39.70
2012,03,01,07,39,47.00
2012,03,01,07,40,47.00
2012,03,01,07,41,47.90
2012,03,01,07,42,51.40
2012,03,01,07,43,53.00
2012,03,01,07,44,47.40
2012,03,01,07,45,42.00
2012,03,01,07,46,41.30
2012,03,01,07,47,40.00
2012,03,01,07,48,39.30
2012,03,01,07,49,39.80
2012,03,01,07,50,40.20
2012,03,01,07,51,42.40
2012,03,01,07,52,44.00
2012,03,01,07,53,40.30
2012,03,01,07,54,34.40
2012,03,01,07,55,33.00
2012,03,01,07,56,33.00
2012,03,01,07,57,33.50
2012,03,01,07,58,34.20
2012,03,01,07,59,33.00
2012,03,01,08,00,32.30
2012,03,01,08,01,32.00
2012,03,01,08,02,33.50
2012,03,01,08,03,39.00
2012,03,01,08,04,36.30
2012,03,01,08,05,39.80
2012,03,01,08,06,46.00
2012,03,01,08,07,52.70
2012,03,01,08,08,64.20
2012,03,01,08,09,58.80
2012,03,01,08,10,43.10
2012,03,01,08,11,37.80
2012,03,01,08,12,44.90
2012,03,01,08,13,50.40
2012,03,01,08,14,63.00
2012,03,01,08,15,80.50
2012,03,01,08,16,96.20
2012,03,01,08,17,129.60
2012,03,01,08,18,152.30
2012,03,01,08,19,161.20
2012,03,01,08,20,165.40
2012,03,01,08,21,167.60
2012,03,01,08,22,170.40
2012,03,01,08,23,173.20
2012,03,01,08,24,177.00
2012,03,01,08,25,180.90
2012,03,01,08,26,185.20
2012,03,01,08,27,187.20
2012,03,01,08,28,191.00
2012,03,01,08,29,192.60
2012,03,01,08,30,194.50
2012,03,01,08,31,197.10
2012,03,01,08,32,200.40
2012,03,01,08,33,203.60
2012,03,01,08,34,206.50
2012,03,01,08,35,209.60
2012,03,01,08,36,212.60
2012,03,01,08,37,214.10
2012,03,01,08,38,216.50
2012,03,01,08,39,218.70
2012,03,01,08,40,221.60
2012,03,01,08,41,224.40
2012,03,01,08,42,226.60
2012,03,01,08,43,230.10
2012,03,01,08,44,232.50
2012,03,01,08,45,234.80
2012,03,01,08,46,236.60
2012,03,01,08,47,238.40
2012,03,01,08,48,242.40
2012,03,01,08,49,244.20
2012,03,01,08,50,246.00
2012,03,01,08,51,247.70
2012,03,01,08,52,250.60
2012,03,01,08,53,253.80
2012,03,01,08,54,256.70
2012,03,01,08,55,258.30
2012,03,01,08,56,261.30
2012,03,01,08,57,264.50
2012,03,01,08,58,266.20
2012,03,01,08,59,267.00
2012,03,01,09,00,271.60
2012,03,01,09,01,274.30
2012,03,01,09,02,276.70
2012,03,01,09,03,278.50
2012,03,01,09,04,281.60
2012,03,01,09,05,283.00
2012,03,01,09,06,286.60
2012,03,01,09,07,288.40
2012,03,01,09,08,290.00
2012,03,01,09,09,292.50
2012,03,01,09,10,296.30
2012,03,01,09,11,298.50
2012,03,01,09,12,301.00
2012,03,01,09,13,302.40
2012,03,01,09,14,304.70
2012,03,01,09,15,307.50
2012,03,01,09,16,310.30
2012,03,01,09,17,312.50
2012,03,01,09,18,315.00
2012,03,01,09,19,317.00
2012,03,01,09,20,320.70
2012,03,01,09,21,322.50
2012,03,01,09,22,324.40
2012,03,01,09,23,326.70
2012,03,01,09,24,329.00
2012,03,01,09,25,330.60
2012,03,01,09,26,332.80
2012,03,01,09,27,336.20
2012,03,01,09,28,338.70
2012,03,01,09,29,339.00
2012,03,01,09,30,343.20
2012,03,01,09,31,345.30
2012,03,01,09,32,346.80
2012,03,01,09,33,349.20
2012,03,01,09,34,351.50
2012,03,01,09,35,352.90
2012,03,01,09,36,355.30
2012,03,01,09,37,357.60
2012,03,01,09,38,359.50
2012,03,01,09,39,361.20
2012,03,01,09,40,363.40
2012,03,01,09,41,365.90
2012,03,01,09,42,367.00
2012,03,01,09,43,368.20
2012,03,01,09,44,372.00
2012,03,01,09,45,373.60
2012,03,01,09,46,375.50
2012,03,01,09,47,377.90
2012,03,01,09,48,381.40
2012,03,01,09,49,383.00
2012,03,01,09,50,383.90
2012,03,01,09,51,386.30
2012,03,01,09,52,387.80
2012,03,01,09,53,390.00
2012,03,01,09,54,392.80
2012,03,01,09,55,396.40
2012,03,01,09,56,397.00
2012,03,01,09,57,398.30
2012,03,01,09,58,400.60
2012,03,01,09,59,403.00
2012,03,01,10,00,404.00
2012,03,01,10,01,404.70
2012,03,01,10,02,407.10
2012,03,01,10,03,410.10
2012,03,01,10,04,411.00
2012,03,01,10,05,413.10
2012,03,01,10,06,415.50
2012,03,01,10,07,417.40
2012,03,01,10,08,419.10
2012,03,01,10,09,421.40
2012,03,01,10,10,422.00
2012,03,01,10,11,425.20
2012,03,01,10,12,427.60
2012,03,01,10,13,429.80
2012,03,01,10,14,432.60
2012,03,01,10,15,434.00
2012,03,01,10,16,435.70
2012,03,01,10,17,440.40
2012,03,01,10,18,447.20
2012,03,01,10,19,446.20
2012,03,01,10,20,449.20
2012,03,01,10,21,453.00
2012,03,01,10,22,456.90
2012,03,01,10,23,461.00
2012,03,01,10,24,461.90
2012,03,01,10,25,467.10
2012,03,01,10,26,474.00
2012,03,01,10,27,482.60
2012,03,01,10,28,431.40
2012,03,01,10,29,464.00
2012,03,01,10,30,464.00
2012,03,01,10,31,290.00
2012,03,01,10,32,111.60
2012,03,01,10,33,112.80
2012,03,01,10,34,125.80
2012,03,01,10,35,139.00
2012,03,01,10,36,150.60
2012,03,01,10,37,187.80
2012,03,01,10,38,253.40
2012,03,01,10,39,281.00
2012,03,01,10,40,514.70
2012,03,01,10,41,527.00
2012,03,01,10,42,572.20
2012,03,01,10,43,637.90
2012,03,01,10,44,626.20
2012,03,01,10,45,617.60
2012,03,01,10,46,615.40
2012,03,01,10,47,618.80
2012,03,01,10,48,628.40
2012,03,01,10,49,643.20
2012,03,01,10,50,657.50
2012,03,01,10,51,670.60
2012,03,01,10,52,681.00
2012,03,01,10,53,688.80
2012,03,01,10,54,694.90
2012,03,01,10,55,694.80
2012,03,01,10,56,698.20
2012,03,01,10,57,706.80
2012,03,01,10,58,715.10
2012,03,01,10,59,705.00
2012,03,01,11,00,705.00
2012,03,01,11,01,669.00
2012,03,01,11,02,645.00
2012,03,01,11,03,645.00
2012,03,01,11,04,738.80
2012,03,01,11,05,742.00
2012,03,01,11,06,746.00
2012,03,01,11,07,752.90
2012,03,01,11,08,760.80
2012,03,01,11,09,778.30
2012,03,01,11,10,698.30
2012,03,01,11,11,402.50
2012,03,01,11,12,422.00
2012,03,01,11,13,622.40
2012,03,01,11,14,786.00
2012,03,01,11,15,796.00
2012,03,01,11,16,696.80
2012,03,01,11,17,367.30
2012,03,01,11,18,313.00
2012,03,01,11,19,313.00
2012,03,01,11,20,313.00
2012,03,01,11,21,313.00
2012,03,01,11,22,301.50
2012,03,01,11,23,267.00
2012,03,01,11,24,267.00
2012,03,01,11,25,534.80
2012,03,01,11,26,732.50
2012,03,01,11,27,751.00
2012,03,01,11,28,751.00
2012,03,01,11,29,753.00
2012,03,01,11,30,756.00
2012,03,01,11,31,481.70
2012,03,01,11,32,318.70
2012,03,01,11,33,316.00
2012,03,01,11,34,316.00
2012,03,01,11,35,316.00
2012,03,01,11,36,307.00
2012,03,01,11,37,348.20
2012,03,01,11,38,320.20
2012,03,01,11,39,377.00
2012,03,01,11,40,730.70
2012,03,01,11,41,737.50
2012,03,01,11,42,741.60
2012,03,01,11,43,774.90
2012,03,01,11,44,788.20
2012,03,01,11,45,793.20
2012,03,01,11,46,772.30
2012,03,01,11,47,764.50
2012,03,01,11,48,777.40
2012,03,01,11,49,745.40
2012,03,01,11,50,756.70
2012,03,01,11,51,728.20
2012,03,01,11,52,765.80
2012,03,01,11,53,752.80
2012,03,01,11,54,742.80
2012,03,01,11,55,737.60
2012,03,01,11,56,733.20
2012,03,01,11,57,733.40
2012,03,01,11,58,736.00
2012,03,01,11,59,740.10
2012,03,01,12,00,739.40
2012,03,01,12,01,739.60
2012,03,01,12,02,734.80
2012,03,01,12,03,728.80
2012,03,01,12,04,719.20
2012,03,01,12,05,715.00
2012,03,01,12,06,708.20
2012,03,01,12,07,701.80
2012,03,01,12,08,703.00
2012,03,01,12,09,702.50
2012,03,01,12,10,701.00
2012,03,01,12,11,701.00
2012,03,01,12,12,700.30
2012,03,01,12,13,700.00
2012,03,01,12,14,697.40
2012,03,01,12,15,693.70
2012,03,01,12,16,696.20
2012,03,01,12,17,702.90
2012,03,01,12,18,716.20
2012,03,01,12,19,732.90
2012,03,01,12,20,745.90
2012,03,01,12,21,751.90
2012,03,01,12,22,756.20
2012,03,01,12,23,759.00
2012,03,01,12,24,759.00
2012,03,01,12,25,764.90
2012,03,01,12,26,778.60
2012,03,01,12,27,790.80
2012,03,01,12,28,786.00
2012,03,01,12,29,783.50
2012,03,01,12,30,782.00
2012,03,01,12,31,773.10
2012,03,01,12,32,747.80
2012,03,01,12,33,679.00
2012,03,01,12,34,601.50
2012,03,01,12,35,524.00
2012,03,01,12,36,735.20
2012,03,01,12,37,794.90
2012,03,01,12,38,760.60
2012,03,01,12,39,807.00
2012,03,01,12,40,759.60
2012,03,01,12,41,717.00
2012,03,01,12,42,582.30
2012,03,01,12,43,582.20
2012,03,01,12,44,806.10
2012,03,01,12,45,798.00
2012,03,01,12,46,684.30
2012,03,01,12,47,582.00
2012,03,01,12,48,755.40
2012,03,01,12,49,785.80
2012,03,01,12,50,785.20
2012,03,01,12,51,773.60
2012,03,01,12,52,752.00
2012,03,01,12,53,752.00
2012,03,01,12,54,380.60
2012,03,01,12,55,325.20
2012,03,01,12,56,304.00
2012,03,01,12,57,304.00
2012,03,01,12,58,304.00
2012,03,01,12,59,350.50
2012,03,01,13,00,366.00
2012,03,01,13,01,388.80
2012,03,01,13,02,480.00
2012,03,01,13,03,480.00
2012,03,01,13,04,355.50
2012,03,01,13,05,271.80
2012,03,01,13,06,261.50
2012,03,01,13,07,264.10
2012,03,01,13,08,295.10
2012,03,01,13,09,306.00
2012,03,01,13,10,306.00
2012,03,01,13,11,306.00
2012,03,01,13,12,327.50
2012,03,01,13,13,733.10
2012,03,01,13,14,731.60
2012,03,01,13,15,744.50
2012,03,01,13,16,749.60
2012,03,01,13,17,746.30
2012,03,01,13,18,744.30
2012,03,01,13,19,745.50
2012,03,01,13,20,741.40
2012,03,01,13,21,744.00
2012,03,01,13,22,542.80
2012,03,01,13,23,450.00
2012,03,01,13,24,709.60
2012,03,01,13,25,715.90
2012,03,01,13,26,710.20
2012,03,01,13,27,704.80
2012,03,01,13,28,698.20
2012,03,01,13,29,692.00
2012,03,01,13,30,685.70
2012,03,01,13,31,679.00
2012,03,01,13,32,663.30
2012,03,01,13,33,652.90
2012,03,01,13,34,645.80
2012,03,01,13,35,632.80
2012,03,01,13,36,628.30
2012,03,01,13,37,632.90
2012,03,01,13,38,644.10
2012,03,01,13,39,652.00
2012,03,01,13,40,651.60
2012,03,01,13,41,640.00
2012,03,01,13,42,643.40
2012,03,01,13,43,650.10
2012,03,01,13,44,659.20
2012,03,01,13,45,666.60
2012,03,01,13,46,674.50
2012,03,01,13,47,658.00
2012,03,01,13,48,665.20
2012,03,01,13,49,642.00
2012,03,01,13,50,642.00
2012,03,01,13,51,642.00
2012,03,01,13,52,642.00
2012,03,01,13,53,576.40
2012,03,01,13,54,552.10
2012,03,01,13,55,545.00
2012,03,01,13,56,534.50
2012,03,01,13,57,520.80
2012,03,01,13,58,519.80
2012,03,01,13,59,518.70
2012,03,01,14,00,516.80
2012,03,01,14,01,523.80
2012,03,01,14,02,524.50
2012,03,01,14,03,535.00
2012,03,01,14,04,559.40
2012,03,01,14,05,563.50
2012,03,01,14,06,560.90
2012,03,01,14,07,529.40
2012,03,01,14,08,519.70
2012,03,01,14,09,526.00
2012,03,01,14,10,496.40
2012,03,01,14,11,480.00
2012,03,01,14,12,466.80
2012,03,01,14,13,469.00
2012,03,01,14,14,469.00
2012,03,01,14,15,464.10
2012,03,01,14,16,462.00
2012,03,01,14,17,469.50
2012,03,01,14,18,447.10
2012,03,01,14,19,435.60
2012,03,01,14,20,419.40
2012,03,01,14,21,405.40
2012,03,01,14,22,392.00
2012,03,01,14,23,403.10
2012,03,01,14,24,406.80
2012,03,01,14,25,410.80
2012,03,01,14,26,406.70
2012,03,01,14,27,415.00
2012,03,01,14,28,433.30
2012,03,01,14,29,454.00
2012,03,01,14,30,461.00
2012,03,01,14,31,457.00
2012,03,01,14,32,453.10
2012,03,01,14,33,452.00
2012,03,01,14,34,448.40
2012,03,01,14,35,448.40
2012,03,01,14,36,450.00
2012,03,01,14,37,451.00
2012,03,01,14,38,445.10
2012,03,01,14,39,438.60
2012,03,01,14,40,425.60
2012,03,01,14,41,425.00
2012,03,01,14,42,411.00
2012,03,01,14,43,383.00
2012,03,01,14,44,381.00
2012,03,01,14,45,381.00
2012,03,01,14,46,358.10
2012,03,01,14,47,160.60
2012,03,01,14,48,147.20
2012,03,01,14,49,141.50
2012,03,01,14,50,142.00
2012,03,01,14,51,299.50
2012,03,01,14,52,316.60
2012,03,01,14,53,313.60
2012,03,01,14,54,272.50
2012,03,01,14,55,235.90
2012,03,01,14,56,243.10
2012,03,01,14,57,244.00
2012,03,01,14,58,190.00
2012,03,01,14,59,228.80
2012,03,01,15,00,318.40
2012,03,01,15,01,319.00
2012,03,01,15,02,320.20
2012,03,01,15,03,330.50
2012,03,01,15,04,351.40
2012,03,01,15,05,376.50
2012,03,01,15,06,377.30
2012,03,01,15,07,365.00
2012,03,01,15,08,354.40
2012,03,01,15,09,367.20
2012,03,01,15,10,367.60
2012,03,01,15,11,373.10
2012,03,01,15,12,378.00
2012,03,01,15,13,366.60
2012,03,01,15,14,349.50
2012,03,01,15,15,320.00
2012,03,01,15,16,278.30
2012,03,01,15,17,324.00
2012,03,01,15,18,308.50
2012,03,01,15,19,306.70
2012,03,01,15,20,306.00
2012,03,01,15,21,317.60
2012,03,01,15,22,326.60
2012,03,01,15,23,351.00
2012,03,01,15,24,357.40
2012,03,01,15,25,359.50
2012,03,01,15,26,359.60
2012,03,01,15,27,353.60
2012,03,01,15,28,361.20
2012,03,01,15,29,350.90
2012,03,01,15,30,353.00
2012,03,01,15,31,301.70
2012,03,01,15,32,248.50
2012,03,01,15,33,231.20
2012,03,01,15,34,240.30
2012,03,01,15,35,260.10
2012,03,01,15,36,278.00
2012,03,01,15,37,275.20
2012,03,01,15,38,259.10
2012,03,01,15,39,258.30
2012,03,01,15,40,266.20
2012,03,01,15,41,271.90
2012,03,01,15,42,272.00
2012,03,01,15,43,260.90
2012,03,01,15,44,240.10
2012,03,01,15,45,234.20
2012,03,01,15,46,218.90
2012,03,01,15,47,204.00
2012,03,01,15,48,207.00
2012,03,01,15,49,217.10
2012,03,01,15,50,216.20
2012,03,01,15,51,212.10
2012,03,01,15,52,200.40
2012,03,01,15,53,198.90
2012,03,01,15,54,221.40
2012,03,01,15,55,234.90
2012,03,01,15,56,226.40
2012,03,01,15,57,226.20
2012,03,01,15,58,222.30
2012,03,01,15,59,209.00
2012,03,01,16,00,182.10
2012,03,01,16,01,165.30
2012,03,01,16,02,164.70
2012,03,01,16,03,162.80
2012,03,01,16,04,159.20
2012,03,01,16,05,151.80
2012,03,01,16,06,149.00
2012,03,01,16,07,149.00
2012,03,01,16,08,147.90
2012,03,01,16,09,145.50
2012,03,01,16,10,142.00
2012,03,01,16,11,139.00
2012,03,01,16,12,139.00
2012,03,01,16,13,137.30
2012,03,01,16,14,133.60
2012,03,01,16,15,129.20
2012,03,01,16,16,125.20
2012,03,01,16,17,125.30
2012,03,01,16,18,130.50
2012,03,01,16,19,128.60
2012,03,01,16,20,124.40
2012,03,01,16,21,121.00
2012,03,01,16,22,122.70
2012,03,01,16,23,122.60
2012,03,01,16,24,118.80
2012,03,01,16,25,116.50
2012,03,01,16,26,120.80
2012,03,01,16,27,124.30
2012,03,01,16,28,122.10
2012,03,01,16,29,121.00
2012,03,01,16,30,118.80
2012,03,01,16,31,118.00
2012,03,01,16,32,113.80
2012,03,01,16,33,113.30
2012,03,01,16,34,114.00
2012,03,01,16,35,114.00
2012,03,01,16,36,111.80
2012,03,01,16,37,109.20
2012,03,01,16,38,110.90
2012,03,01,16,39,122.20
2012,03,01,16,40,139.00
2012,03,01,16,41,144.10
2012,03,01,16,42,149.10
2012,03,01,16,43,170.70
2012,03,01,16,44,178.60
2012,03,01,16,45,181.00
2012,03,01,16,46,182.10
2012,03,01,16,47,183.00
2012,03,01,16,48,185.40
2012,03,01,16,49,186.20
2012,03,01,16,50,188.00
2012,03,01,16,51,188.00
2012,03,01,16,52,186.80
2012,03,01,16,53,183.90
2012,03,01,16,54,178.80
2012,03,01,16,55,171.60
2012,03,01,16,56,162.90
2012,03,01,16,57,153.80
2012,03,01,16,58,120.50
2012,03,01,16,59,77.70
2012,03,01,17,00,63.00
2012,03,01,17,01,55.20
2012,03,01,17,02,48.90
2012,03,01,17,03,42.30
2012,03,01,17,04,38.30
2012,03,01,17,05,34.00
2012,03,01,17,06,32.10
2012,03,01,17,07,30.00
2012,03,01,17,08,29.40
2012,03,01,17,09,28.00
2012,03,01,17,10,28.00
2012,03,01,17,11,26.60
2012,03,01,17,12,26.00
2012,03,01,17,13,26.00
2012,03,01,17,14,26.00
2012,03,01,17,15,26.00